Location: Kunchanapalle
(16.4623°N, 80.6176°E)
Time: 18:21:24
(UTC+00:00)

Cosmos 292 Rocket - Pass Details

Date: 13 August 2020
Orbit: 674 x 694 km, 74.1° (Epoch: 20 September)

Event Time Altitude Azimuth Distance (km) Brightness Sun altitude
Rises 13:19:31 0° 351° (N) 3,018 7.5 -4.6°
Reaches altitude 10° 13:21:49 10° 354° (N) 2,104 6.6 -5.1°
Maximum altitude 13:26:31 65° 76° (ENE) 743 3.8 -6.2°
Drops below altitude 10° 13:31:13 10° 158° (SSE) 2,111 5.9 -7.2°
Sets 13:33:32 0° 161° (SSE) 3,027 6.7 -7.8°
